Time,TemperatureF,DewpointF,PressureIn,WindDirection,WindDirectionDegrees,WindSpeedMPH,WindSpeedGustMPH,Humidity,HourlyPrecipIn,Conditions,Clouds,dailyrainin,SolarRadiationWatts/m^2,SoftwareType,DateUTC
2013-11-12 00:02:00,14.0,7.2,30.75,West,281,5.0,7.0,74,0.00,,---,0.00,0.00,VWS V14.01,2013-11-12 06:02:00,
2013-11-12 00:11:00,13.9,7.2,30.75,WNW,287,3.0,9.0,74,0.00,,---,0.00,0.00,VWS V14.01,2013-11-12 06:11:00,
2013-11-12 00:16:00,13.8,7.1,30.75,WNW,287,1.0,4.0,74,0.00,,---,0.00,0.00,VWS V14.01,2013-11-12 06:16:00,
2013-11-12 00:21:00,13.7,7.3,30.75,WNW,290,4.0,6.0,75,0.00,,---,0.00,0.00,VWS V14.01,2013-11-12 06:21:00,
2013-11-12 00:26:00,13.6,9.4,30.76,WNW,290,2.0,5.0,83,0.00,,---,0.00,0.00,VWS V14.01,2013-11-12 06:26:00,
2013-11-12 00:31:00,13.6,7.2,30.77,WNW,289,4.0,4.0,75,0.00,,---,0.00,0.00,VWS V14.01,2013-11-12 06:31:00,
2013-11-12 00:36:00,13.5,7.1,30.77,WNW,290,3.0,4.0,75,0.00,,---,0.00,0.00,VWS V14.01,2013-11-12 06:36:00,
2013-11-12 00:41:00,13.5,7.1,30.77,WNW,286,5.0,6.0,75,0.00,,---,0.00,0.00,VWS V14.01,2013-11-12 06:41:00,
2013-11-12 00:51:00,13.6,7.5,30.76,WNW,292,3.0,7.0,76,0.00,,---,0.00,0.00,VWS V14.01,2013-11-12 06:51:00,
2013-11-12 00:56:00,13.6,7.5,30.76,WNW,297,1.0,9.0,76,0.00,,---,0.00,0.00,VWS V14.01,2013-11-12 06:56:00,
2013-11-12 01:01:00,13.5,7.1,30.76,WNW,290,4.0,7.0,75,0.00,,---,0.00,0.00,VWS V14.01,2013-11-12 07:01:00,
2013-11-12 01:06:00,13.5,7.1,30.75,WNW,285,5.0,7.0,75,0.00,,---,0.00,0.00,VWS V14.01,2013-11-12 07:06:00,
2013-11-12 01:11:00,13.5,7.1,30.76,WNW,290,4.0,6.0,75,0.00,,---,0.00,0.00,VWS V14.01,2013-11-12 07:11:00,
2013-11-12 01:16:00,13.5,7.1,30.76,West,264,5.0,6.0,75,0.00,,---,0.00,0.00,VWS V14.01,2013-11-12 07:16:00,
2013-11-12 01:21:00,13.6,7.5,30.75,WNW,293,3.0,6.0,76,0.00,,---,0.00,0.00,VWS V14.01,2013-11-12 07:21:00,
2013-11-12 01:26:00,13.6,7.5,30.75,WNW,294,1.0,7.0,76,0.00,,---,0.00,0.00,VWS V14.01,2013-11-12 07:26:00,
2013-11-12 01:31:00,13.6,7.5,30.75,WNW,286,3.0,6.0,76,0.00,,---,0.00,0.00,VWS V14.01,2013-11-12 07:31:00,
2013-11-12 01:36:00,13.6,7.5,30.76,WNW,286,3.0,4.0,76,0.00,,---,0.00,0.00,VWS V14.01,2013-11-12 07:36:00,
2013-11-12 01:41:00,13.5,7.4,30.76,WNW,286,2.0,5.0,76,0.00,,---,0.00,0.00,VWS V14.01,2013-11-12 07:41:00,
2013-11-12 01:46:00,13.5,7.7,30.76,WNW,286,3.0,5.0,77,0.00,,---,0.00,0.00,VWS V14.01,2013-11-12 07:46:00,
2013-11-12 01:51:00,13.5,7.7,30.76,WNW,287,3.0,5.0,77,0.00,,---,0.00,0.00,VWS V14.01,2013-11-12 07:51:00,
2013-11-12 01:56:00,13.6,7.7,30.76,West,276,4.0,7.0,77,0.00,,---,0.00,0.00,VWS V14.01,2013-11-12 07:56:00,
2013-11-12 02:01:00,13.6,7.5,30.76,WNW,292,1.0,7.0,76,0.00,,---,0.00,0.00,VWS V14.01,2013-11-12 08:01:00,
2013-11-12 02:06:00,13.6,7.5,30.76,West,277,1.0,4.0,76,0.00,,---,0.00,0.00,VWS V14.01,2013-11-12 08:06:00,
2013-11-12 02:11:00,13.6,7.5,30.76,West,280,4.0,5.0,76,0.00,,---,0.00,0.00,VWS V14.01,2013-11-12 08:11:00,
2013-11-12 02:16:00,13.6,7.7,30.77,West,281,1.0,5.0,77,0.00,,---,0.00,0.00,VWS V14.01,2013-11-12 08:16:00,
2013-11-12 02:21:00,13.7,7.8,30.77,West,281,0.0,4.0,77,0.00,,---,0.00,0.00,VWS V14.01,2013-11-12 08:21:00,
2013-11-12 02:26:00,13.7,7.6,30.77,West,281,2.0,3.0,76,0.00,,---,0.00,0.00,VWS V14.01,2013-11-12 08:26:00,
2013-11-12 02:31:00,13.7,7.6,30.77,WNW,284,3.0,6.0,76,0.00,,---,0.00,0.00,VWS V14.01,2013-11-12 08:31:00,
2013-11-12 02:36:00,13.7,7.6,30.76,West,280,0.0,4.0,76,0.00,,---,0.00,0.00,VWS V14.01,2013-11-12 08:36:00,
2013-11-12 02:41:00,13.6,7.5,30.77,West,279,5.0,5.0,76,0.00,,---,0.00,0.00,VWS V14.01,2013-11-12 08:41:00,
2013-11-12 02:46:00,13.6,7.5,30.77,West,279,3.0,4.0,76,0.00,,---,0.00,0.00,VWS V14.01,2013-11-12 08:46:00,
2013-11-12 02:51:00,13.5,7.4,30.77,West,279,1.0,4.0,76,0.00,,---,0.00,0.00,VWS V14.01,2013-11-12 08:51:00,
2013-11-12 02:56:00,13.4,7.3,30.77,WNW,288,3.0,7.0,76,0.00,,---,0.00,0.00,VWS V14.01,2013-11-12 08:56:00,
2013-11-12 03:01:00,13.4,7.3,30.77,WNW,284,3.0,6.0,76,0.00,,---,0.00,0.00,VWS V14.01,2013-11-12 09:01:00,
2013-11-12 03:06:00,13.3,7.2,30.77,WNW,286,3.0,4.0,76,0.00,,---,0.00,0.00,VWS V14.01,2013-11-12 09:06:00,
2013-11-12 03:11:00,13.2,7.1,30.78,WNW,287,1.0,6.0,76,0.00,,---,0.00,0.00,VWS V14.01,2013-11-12 09:11:00,
2013-11-12 03:16:00,13.2,7.1,30.78,West,274,0.0,6.0,76,0.00,,---,0.00,0.00,VWS V14.01,2013-11-12 09:16:00,
2013-11-12 03:21:00,13.1,7.3,30.78,West,275,0.0,4.0,77,0.00,,---,0.00,0.00,VWS V14.01,2013-11-12 09:21:00,
2013-11-12 03:26:00,13.0,7.2,30.78,West,265,4.0,6.0,77,0.00,,---,0.00,0.00,VWS V14.01,2013-11-12 09:26:00,
2013-11-12 03:31:00,12.9,6.8,30.78,WNW,286,2.0,6.0,76,0.00,,---,0.00,0.00,VWS V14.01,2013-11-12 09:31:00,
2013-11-12 03:36:00,12.9,6.8,30.78,West,271,2.0,6.0,76,0.00,,---,0.00,0.00,VWS V14.01,2013-11-12 09:36:00,
2013-11-12 03:41:00,12.8,6.7,30.78,West,272,2.0,5.0,76,0.00,,---,0.00,0.00,VWS V14.01,2013-11-12 09:41:00,
2013-11-12 03:46:00,12.7,6.9,30.78,West,276,3.0,7.0,77,0.00,,---,0.00,0.00,VWS V14.01,2013-11-12 09:46:00,
2013-11-12 03:51:00,12.6,6.8,30.78,WNW,285,2.0,5.0,77,0.00,,---,0.00,0.00,VWS V14.01,2013-11-12 09:51:00,
2013-11-12 03:56:00,12.5,6.7,30.78,WNW,288,4.0,6.0,77,0.00,,---,0.00,0.00,VWS V14.01,2013-11-12 09:56:00,
2013-11-12 04:01:00,12.3,6.5,30.79,WNW,287,2.0,4.0,77,0.00,,---,0.00,0.00,VWS V14.01,2013-11-12 10:01:00,
2013-11-12 04:06:00,12.2,6.4,30.79,WNW,288,2.0,5.0,77,0.00,,---,0.00,0.00,VWS V14.01,2013-11-12 10:06:00,
2013-11-12 04:11:00,12.1,6.3,30.80,WNW,286,5.0,5.0,77,0.00,,---,0.00,0.00,VWS V14.01,2013-11-12 10:11:00,
2013-11-12 04:16:00,12.0,6.5,30.80,WNW,286,2.0,5.0,78,0.00,,---,0.00,0.00,VWS V14.01,2013-11-12 10:16:00,
2013-11-12 04:21:00,11.9,6.4,30.80,WNW,284,2.0,7.0,78,0.00,,---,0.00,0.00,VWS V14.01,2013-11-12 10:21:00,
2013-11-12 04:26:00,11.8,6.3,30.81,WNW,286,4.0,7.0,78,0.00,,---,0.00,0.00,VWS V14.01,2013-11-12 10:26:00,
2013-11-12 04:31:00,11.7,6.2,30.80,WNW,286,0.0,5.0,78,0.00,,---,0.00,0.00,VWS V14.01,2013-11-12 10:31:00,
2013-11-12 04:36:00,11.6,6.1,30.80,WNW,286,4.0,4.0,78,0.00,,---,0.00,0.00,VWS V14.01,2013-11-12 10:36:00,
2013-11-12 04:41:00,11.4,5.9,30.80,WNW,286,2.0,4.0,78,0.00,,---,0.00,0.00,VWS V14.01,2013-11-12 10:41:00,
2013-11-12 04:46:00,11.3,6.1,30.79,WNW,286,1.0,5.0,79,0.00,,---,0.00,0.00,VWS V14.01,2013-11-12 10:46:00,
2013-11-12 04:51:00,11.3,6.1,30.79,WNW,286,1.0,3.0,79,0.00,,---,0.00,0.00,VWS V14.01,2013-11-12 10:51:00,
2013-11-12 04:56:00,11.3,6.1,30.80,WNW,286,2.0,5.0,79,0.00,,---,0.00,0.00,VWS V14.01,2013-11-12 10:56:00,
2013-11-12 05:01:00,11.2,6.0,30.79,WNW,286,2.0,3.0,79,0.00,,---,0.00,0.00,VWS V14.01,2013-11-12 11:01:00,
2013-11-12 05:06:00,11.2,6.0,30.79,WNW,286,3.0,3.0,79,0.00,,---,0.00,0.00,VWS V14.01,2013-11-12 11:06:00,
2013-11-12 05:11:00,11.2,6.0,30.79,WNW,286,2.0,3.0,79,0.00,,---,0.00,0.00,VWS V14.01,2013-11-12 11:11:00,
2013-11-12 05:16:00,11.1,5.9,30.80,WNW,286,1.0,4.0,79,0.00,,---,0.00,0.00,VWS V14.01,2013-11-12 11:16:00,
2013-11-12 05:21:00,11.0,5.8,30.80,WNW,286,1.0,2.0,79,0.00,,---,0.00,0.00,VWS V14.01,2013-11-12 11:21:00,
2013-11-12 05:26:00,10.9,5.7,30.79,WNW,286,2.0,3.0,79,0.00,,---,0.00,0.00,VWS V14.01,2013-11-12 11:26:00,
2013-11-12 05:31:00,10.7,5.8,30.79,WNW,286,3.0,5.0,80,0.00,,---,0.00,0.00,VWS V14.01,2013-11-12 11:31:00,
2013-11-12 05:36:00,10.8,5.9,30.79,WNW,286,2.0,4.0,80,0.00,,---,0.00,0.00,VWS V14.01,2013-11-12 11:36:00,
2013-11-12 05:41:00,10.8,5.9,30.80,West,267,2.0,7.0,80,0.00,,---,0.00,0.00,VWS V14.01,2013-11-12 11:41:00,
2013-11-12 05:46:00,10.8,5.9,30.80,West,270,2.0,5.0,80,0.00,,---,0.00,0.00,VWS V14.01,2013-11-12 11:46:00,
2013-11-12 05:51:00,10.7,5.8,30.80,West,271,2.0,5.0,80,0.00,,---,0.00,0.00,VWS V14.01,2013-11-12 11:51:00,
2013-11-12 05:56:00,10.7,5.8,30.80,West,271,3.0,4.0,80,0.00,,---,0.00,0.00,VWS V14.01,2013-11-12 11:56:00,
2013-11-12 06:01:00,10.7,5.8,30.81,West,272,3.0,6.0,80,0.00,,---,0.00,0.00,VWS V14.01,2013-11-12 12:01:00,
2013-11-12 06:06:00,10.7,5.8,30.80,West,272,3.0,3.0,80,0.00,,---,0.00,0.00,VWS V14.01,2013-11-12 12:06:00,
2013-11-12 06:11:00,10.7,5.8,30.81,West,272,2.0,3.0,80,0.00,,---,0.00,0.00,VWS V14.01,2013-11-12 12:11:00,
2013-11-12 06:21:00,10.5,5.6,30.81,West,272,2.0,5.0,80,0.00,,---,0.00,0.00,VWS V14.01,2013-11-12 12:21:00,
2013-11-12 06:26:00,10.4,5.7,30.81,West,272,1.0,3.0,81,0.00,,---,0.00,0.00,VWS V14.01,2013-11-12 12:26:00,
2013-11-12 06:31:00,10.4,5.7,30.81,West,272,3.0,5.0,81,0.00,,---,0.00,0.00,VWS V14.01,2013-11-12 12:31:00,
2013-11-12 06:36:00,10.4,5.7,30.81,West,273,1.0,4.0,81,0.00,,---,0.00,0.00,VWS V14.01,2013-11-12 12:36:00,
2013-11-12 06:41:00,10.4,5.7,30.80,West,273,1.0,4.0,81,0.00,,---,0.00,0.00,VWS V14.01,2013-11-12 12:41:00,
2013-11-12 06:46:00,10.5,5.8,30.80,West,273,0.0,5.0,81,0.00,,---,0.00,0.00,VWS V14.01,2013-11-12 12:46:00,
2013-11-12 06:51:00,10.5,5.8,30.80,West,273,1.0,4.0,81,0.00,,---,0.00,0.00,VWS V14.01,2013-11-12 12:51:00,
2013-11-12 06:56:00,10.6,5.9,30.80,West,273,1.0,4.0,81,0.00,,---,0.00,0.00,VWS V14.01,2013-11-12 12:56:00,
2013-11-12 07:01:00,10.7,6.0,30.81,West,273,1.0,2.0,81,0.00,,---,0.00,5.00,VWS V14.01,2013-11-12 13:01:00,
2013-11-12 07:06:00,10.8,6.1,30.81,West,273,1.0,5.0,81,0.00,,---,0.00,5.00,VWS V14.01,2013-11-12 13:06:00,
2013-11-12 07:11:00,10.8,6.1,30.80,West,273,3.0,4.0,81,0.00,,---,0.00,5.00,VWS V14.01,2013-11-12 13:11:00,
2013-11-12 07:21:00,11.1,6.4,30.80,West,261,2.0,4.0,81,0.00,,---,0.00,11.00,VWS V14.01,2013-11-12 13:21:00,
2013-11-12 07:26:00,11.2,6.5,30.80,West,260,1.0,4.0,81,0.00,,---,0.00,14.00,VWS V14.01,2013-11-12 13:26:00,
2013-11-12 07:31:00,11.3,6.6,30.80,West,260,2.0,5.0,81,0.00,,---,0.00,21.00,VWS V14.01,2013-11-12 13:31:00,
2013-11-12 07:36:00,11.4,6.7,30.79,West,261,0.0,4.0,81,0.00,,---,0.00,25.00,VWS V14.01,2013-11-12 13:36:00,
2013-11-12 07:41:00,11.5,6.8,30.79,West,261,1.0,5.0,81,0.00,,---,0.00,30.00,VWS V14.01,2013-11-12 13:41:00,
2013-11-12 07:46:00,11.7,7.0,30.80,West,262,5.0,5.0,81,0.00,,---,0.00,37.00,VWS V14.01,2013-11-12 13:46:00,
2013-11-12 07:51:00,11.8,7.1,30.79,West,277,2.0,5.0,81,0.00,,---,0.00,44.00,VWS V14.01,2013-11-12 13:51:00,
2013-11-12 07:56:00,11.9,6.9,30.79,West,277,4.0,5.0,80,0.00,,---,0.00,51.00,VWS V14.01,2013-11-12 13:56:00,
2013-11-12 08:01:00,12.1,7.1,30.80,West,268,1.0,6.0,80,0.00,,---,0.00,60.00,VWS V14.01,2013-11-12 14:01:00,
2013-11-12 08:06:00,12.3,7.3,30.80,West,269,1.0,5.0,80,0.00,,---,0.00,67.00,VWS V14.01,2013-11-12 14:06:00,
2013-11-12 08:11:00,12.5,7.5,30.80,West,267,5.0,5.0,80,0.00,,---,0.00,77.00,VWS V14.01,2013-11-12 14:11:00,
2013-11-12 08:16:00,12.7,7.7,30.80,West,267,4.0,5.0,80,0.00,,---,0.00,86.00,VWS V14.01,2013-11-12 14:16:00,
2013-11-12 08:21:00,13.0,7.7,30.80,West,267,0.0,4.0,79,0.00,,---,0.00,90.00,VWS V14.01,2013-11-12 14:21:00,
2013-11-12 08:26:00,13.2,7.9,30.80,West,267,1.0,6.0,79,0.00,,---,0.00,97.00,VWS V14.01,2013-11-12 14:26:00,
2013-11-12 08:31:00,13.4,8.1,30.80,WSW,256,1.0,6.0,79,0.00,,---,0.00,121.00,VWS V14.01,2013-11-12 14:31:00,
2013-11-12 08:36:00,13.5,7.9,30.80,West,271,5.0,7.0,78,0.00,,---,0.00,128.00,VWS V14.01,2013-11-12 14:36:00,
2013-11-12 08:41:00,13.7,7.8,30.80,West,259,3.0,6.0,77,0.00,,---,0.00,114.00,VWS V14.01,2013-11-12 14:41:00,
2013-11-12 08:46:00,13.9,8.0,30.80,West,267,2.0,7.0,77,0.00,,---,0.00,107.00,VWS V14.01,2013-11-12 14:46:00,
2013-11-12 08:56:00,14.2,8.0,30.80,WNW,289,4.0,7.0,76,0.00,,---,0.00,237.00,VWS V14.01,2013-11-12 14:56:00,
2013-11-12 09:01:00,14.7,8.5,30.80,West,267,7.0,7.0,76,0.00,,---,0.00,251.00,VWS V14.01,2013-11-12 15:01:00,
2013-11-12 09:06:00,15.3,9.1,30.80,NW,307,4.0,7.0,76,0.00,,---,0.00,267.00,VWS V14.01,2013-11-12 15:06:00,
2013-11-12 09:11:00,15.8,9.0,30.80,West,269,2.0,8.0,74,0.00,,---,0.00,257.00,VWS V14.01,2013-11-12 15:11:00,
2013-11-12 09:16:00,16.2,9.1,30.80,West,276,5.0,7.0,73,0.00,,---,0.00,313.00,VWS V14.01,2013-11-12 15:16:00,
2013-11-12 09:21:00,16.4,9.0,30.80,West,261,3.0,6.0,72,0.00,,---,0.00,322.00,VWS V14.01,2013-11-12 15:21:00,
2013-11-12 09:26:00,16.5,8.8,30.80,SW,230,4.0,9.0,71,0.00,,---,0.00,330.00,VWS V14.01,2013-11-12 15:26:00,
2013-11-12 09:31:00,16.7,8.6,30.79,WSW,258,5.0,7.0,70,0.00,,---,0.00,343.00,VWS V14.01,2013-11-12 15:31:00,
2013-11-12 09:36:00,17.0,8.9,30.80,West,261,1.0,7.0,70,0.00,,---,0.00,352.00,VWS V14.01,2013-11-12 15:36:00,
2013-11-12 09:41:00,17.4,9.0,30.80,WSW,239,3.0,6.0,69,0.00,,---,0.00,359.00,VWS V14.01,2013-11-12 15:41:00,
2013-11-12 09:46:00,17.7,9.3,30.79,WSW,244,1.0,7.0,69,0.00,,---,0.00,366.00,VWS V14.01,2013-11-12 15:46:00,
2013-11-12 09:51:00,18.6,10.1,30.79,WNW,291,4.0,5.0,69,0.00,,---,0.00,376.00,VWS V14.01,2013-11-12 15:51:00,
2013-11-12 09:56:00,19.0,9.9,30.79,West,277,3.0,7.0,67,0.00,,---,0.00,385.00,VWS V14.01,2013-11-12 15:56:00,
2013-11-12 10:01:00,18.7,9.6,30.79,WSW,256,9.0,13.0,67,0.00,,---,0.00,394.00,VWS V14.01,2013-11-12 16:01:00,
2013-11-12 10:06:00,18.5,9.4,30.79,WSW,254,2.0,12.0,67,0.00,,---,0.00,403.00,VWS V14.01,2013-11-12 16:06:00,
2013-11-12 10:11:00,18.4,9.0,30.79,SW,215,7.0,10.0,66,0.00,,---,0.00,410.00,VWS V14.01,2013-11-12 16:11:00,
2013-11-12 10:16:00,18.6,9.5,30.78,SSW,203,5.0,7.0,67,0.00,,---,0.00,417.00,VWS V14.01,2013-11-12 16:16:00,
2013-11-12 10:21:00,18.5,9.1,30.78,WSW,254,2.0,9.0,66,0.00,,---,0.00,424.00,VWS V14.01,2013-11-12 16:21:00,
2013-11-12 10:26:00,19.0,9.5,30.78,West,267,4.0,10.0,66,0.00,,---,0.00,429.00,VWS V14.01,2013-11-12 16:26:00,
2013-11-12 10:31:00,19.0,9.5,30.78,South,169,1.0,7.0,66,0.00,,---,0.00,438.00,VWS V14.01,2013-11-12 16:31:00,
2013-11-12 10:36:00,19.1,9.6,30.78,SW,225,4.0,7.0,66,0.00,,---,0.00,443.00,VWS V14.01,2013-11-12 16:36:00,
2013-11-12 10:41:00,19.3,9.8,30.78,West,275,4.0,9.0,66,0.00,,---,0.00,450.00,VWS V14.01,2013-11-12 16:41:00,
2013-11-12 10:46:00,19.7,9.5,30.77,WSW,258,4.0,10.0,64,0.00,,---,0.00,455.00,VWS V14.01,2013-11-12 16:46:00,
2013-11-12 10:51:00,20.3,9.7,30.77,SW,230,6.0,9.0,63,0.00,,---,0.00,459.00,VWS V14.01,2013-11-12 16:51:00,
2013-11-12 10:56:00,20.8,10.2,30.77,WNW,287,7.0,7.0,63,0.00,,---,0.00,462.00,VWS V14.01,2013-11-12 16:56:00,
2013-11-12 11:01:00,21.3,10.3,30.77,SW,236,0.0,7.0,62,0.00,,---,0.00,466.00,VWS V14.01,2013-11-12 17:01:00,
2013-11-12 11:11:00,21.6,9.9,30.76,SW,226,2.0,7.0,60,0.00,,---,0.00,476.00,VWS V14.01,2013-11-12 17:11:00,
2013-11-12 11:16:00,21.6,9.9,30.76,West,276,2.0,9.0,60,0.00,,---,0.00,480.00,VWS V14.01,2013-11-12 17:16:00,
2013-11-12 11:21:00,22.3,9.8,30.76,West,260,4.0,10.0,58,0.00,,---,0.00,482.00,VWS V14.01,2013-11-12 17:21:00,
2013-11-12 11:26:00,22.6,10.1,30.76,WSW,251,0.0,7.0,58,0.00,,---,0.00,485.00,VWS V14.01,2013-11-12 17:26:00,
2013-11-12 11:31:00,23.0,9.7,30.75,SW,223,3.0,11.0,56,0.00,,---,0.00,487.00,VWS V14.01,2013-11-12 17:31:00,
2013-11-12 11:36:00,22.8,9.5,30.75,West,266,5.0,13.0,56,0.00,,---,0.00,487.00,VWS V14.01,2013-11-12 17:36:00,
2013-11-12 11:46:00,23.1,9.4,30.75,SW,232,7.0,11.0,55,0.00,,---,0.00,485.00,VWS V14.01,2013-11-12 17:46:00,
2013-11-12 11:56:00,23.1,10.1,30.75,West,265,4.0,12.0,57,0.00,,---,0.00,485.00,VWS V14.01,2013-11-12 17:56:00,
2013-11-12 12:01:00,23.6,10.6,30.75,WSW,254,13.0,13.0,57,0.00,,---,0.00,485.00,VWS V14.01,2013-11-12 18:01:00,
2013-11-12 12:06:00,23.3,10.3,30.75,SW,234,3.0,13.0,57,0.00,,---,0.00,485.00,VWS V14.01,2013-11-12 18:06:00,
2013-11-12 12:11:00,23.9,10.5,30.75,WNW,296,6.0,10.0,56,0.00,,---,0.00,485.00,VWS V14.01,2013-11-12 18:11:00,
2013-11-12 12:16:00,24.5,11.1,30.75,West,270,8.0,10.0,56,0.00,,---,0.00,483.00,VWS V14.01,2013-11-12 18:16:00,
2013-11-12 12:21:00,24.9,10.2,30.74,WNW,298,3.0,12.0,53,0.00,,---,0.00,482.00,VWS V14.01,2013-11-12 18:21:00,
2013-11-12 12:26:00,25.1,10.4,30.74,SW,226,6.0,9.0,53,0.00,,---,0.00,480.00,VWS V14.01,2013-11-12 18:26:00,
2013-11-12 12:31:00,24.9,10.2,30.73,WSW,250,0.0,13.0,53,0.00,,---,0.00,478.00,VWS V14.01,2013-11-12 18:31:00,
2013-11-12 12:36:00,24.5,9.8,30.72,SSE,147,7.0,12.0,53,0.00,,---,0.00,475.00,VWS V14.01,2013-11-12 18:36:00,
2013-11-12 12:41:00,24.5,10.2,30.72,West,279,5.0,12.0,54,0.00,,---,0.00,471.00,VWS V14.01,2013-11-12 18:41:00,
2013-11-12 12:46:00,25.0,9.9,30.72,SW,223,3.0,13.0,52,0.00,,---,0.00,468.00,VWS V14.01,2013-11-12 18:46:00,
2013-11-12 12:51:00,25.2,10.1,30.71,SW,217,9.0,10.0,52,0.00,,---,0.00,462.00,VWS V14.01,2013-11-12 18:51:00,
2013-11-12 12:56:00,25.6,10.0,30.70,WSW,251,2.0,12.0,51,0.00,,---,0.00,459.00,VWS V14.01,2013-11-12 18:56:00,
2013-11-12 13:01:00,25.8,10.6,30.70,SSW,198,16.0,16.0,52,0.00,,---,0.00,454.00,VWS V14.01,2013-11-12 19:01:00,
2013-11-12 13:06:00,25.4,10.2,30.70,SSW,210,4.0,16.0,52,0.00,,---,0.00,450.00,VWS V14.01,2013-11-12 19:06:00,
2013-11-12 13:11:00,25.9,11.1,30.69,SW,215,1.0,10.0,53,0.00,,---,0.00,445.00,VWS V14.01,2013-11-12 19:11:00,
2013-11-12 13:16:00,26.3,10.6,30.70,West,261,13.0,13.0,51,0.00,,---,0.00,439.00,VWS V14.01,2013-11-12 19:16:00,
2013-11-12 13:21:00,26.2,11.0,30.69,WSW,244,10.0,11.0,52,0.00,,---,0.00,431.00,VWS V14.01,2013-11-12 19:21:00,
2013-11-12 13:26:00,25.9,10.3,30.69,SSW,205,3.0,14.0,51,0.00,,---,0.00,424.00,VWS V14.01,2013-11-12 19:26:00,
2013-11-12 13:31:00,26.5,10.8,30.69,SW,221,6.0,11.0,51,0.00,,---,0.00,417.00,VWS V14.01,2013-11-12 19:31:00,
2013-11-12 13:36:00,27.2,10.6,30.68,West,260,5.0,11.0,49,0.00,,---,0.00,411.00,VWS V14.01,2013-11-12 19:36:00,
2013-11-12 13:41:00,27.3,10.2,30.68,West,260,4.0,13.0,48,0.00,,---,0.00,403.00,VWS V14.01,2013-11-12 19:41:00,
2013-11-12 13:46:00,27.5,10.4,30.67,WSW,245,3.0,11.0,48,0.00,,---,0.00,396.00,VWS V14.01,2013-11-12 19:46:00,
2013-11-12 13:51:00,27.4,9.8,30.67,SSW,207,4.0,7.0,47,0.00,,---,0.00,388.00,VWS V14.01,2013-11-12 19:51:00,
2013-11-12 13:56:00,27.8,10.2,30.67,WSW,252,6.0,13.0,47,0.00,,---,0.00,378.00,VWS V14.01,2013-11-12 19:56:00,
2013-11-12 14:01:00,27.4,9.8,30.67,SW,220,5.0,10.0,47,0.00,,---,0.00,373.00,VWS V14.01,2013-11-12 20:01:00,
2013-11-12 14:06:00,27.1,9.6,30.67,WSW,247,1.0,15.0,47,0.00,,---,0.00,362.00,VWS V14.01,2013-11-12 20:06:00,
2013-11-12 14:11:00,27.5,9.9,30.67,SW,219,9.0,9.0,47,0.00,,---,0.00,359.00,VWS V14.01,2013-11-12 20:11:00,
2013-11-12 14:16:00,27.5,9.9,30.67,SW,217,3.0,11.0,47,0.00,,---,0.00,348.00,VWS V14.01,2013-11-12 20:16:00,
2013-11-12 14:21:00,28.3,9.7,30.66,WSW,258,4.0,9.0,45,0.00,,---,0.00,336.00,VWS V14.01,2013-11-12 20:21:00,
2013-11-12 14:26:00,28.7,9.6,30.66,SW,230,1.0,10.0,44,0.00,,---,0.00,325.00,VWS V14.01,2013-11-12 20:26:00,
2013-11-12 14:31:00,28.5,9.9,30.66,SW,216,6.0,11.0,45,0.00,,---,0.00,311.00,VWS V14.01,2013-11-12 20:31:00,
2013-11-12 14:36:00,27.8,9.2,30.66,South,173,9.0,14.0,45,0.00,,---,0.00,295.00,VWS V14.01,2013-11-12 20:36:00,
2013-11-12 14:41:00,27.4,8.9,30.66,SW,222,10.0,11.0,45,0.00,,---,0.00,288.00,VWS V14.01,2013-11-12 20:41:00,
2013-11-12 14:46:00,27.6,9.5,30.66,WSW,240,5.0,13.0,46,0.00,,---,0.00,281.00,VWS V14.01,2013-11-12 20:46:00,
2013-11-12 14:51:00,28.0,9.9,30.65,WSW,251,0.0,9.0,46,0.00,,---,0.00,271.00,VWS V14.01,2013-11-12 20:51:00,
2013-11-12 14:56:00,27.7,9.1,30.66,South,186,9.0,12.0,45,0.00,,---,0.00,260.00,VWS V14.01,2013-11-12 20:56:00,
2013-11-12 15:01:00,27.7,9.6,30.66,WSW,253,3.0,11.0,46,0.00,,---,0.00,243.00,VWS V14.01,2013-11-12 21:01:00,
2013-11-12 15:06:00,28.1,10.0,30.65,SW,228,1.0,11.0,46,0.00,,---,0.00,237.00,VWS V14.01,2013-11-12 21:06:00,
2013-11-12 15:11:00,28.1,10.5,30.65,WSW,238,7.0,14.0,47,0.00,,---,0.00,227.00,VWS V14.01,2013-11-12 21:11:00,
2013-11-12 15:16:00,28.2,10.1,30.65,SSW,213,6.0,11.0,46,0.00,,---,0.00,211.00,VWS V14.01,2013-11-12 21:16:00,
2013-11-12 15:21:00,28.0,9.9,30.64,SSW,209,9.0,14.0,46,0.00,,---,0.00,195.00,VWS V14.01,2013-11-12 21:21:00,
2013-11-12 15:26:00,27.6,10.0,30.64,SSW,207,1.0,12.0,47,0.00,,---,0.00,193.00,VWS V14.01,2013-11-12 21:26:00,
2013-11-12 15:31:00,27.6,10.0,30.64,SW,223,6.0,11.0,47,0.00,,---,0.00,188.00,VWS V14.01,2013-11-12 21:31:00,
2013-11-12 15:36:00,27.6,10.5,30.64,SSW,205,6.0,12.0,48,0.00,,---,0.00,171.00,VWS V14.01,2013-11-12 21:36:00,
2013-11-12 15:41:00,27.8,11.1,30.64,SSW,194,5.0,9.0,49,0.00,,---,0.00,156.00,VWS V14.01,2013-11-12 21:41:00,
2013-11-12 15:46:00,27.9,10.8,30.64,SW,219,11.0,11.0,48,0.00,,---,0.00,139.00,VWS V14.01,2013-11-12 21:46:00,
2013-11-12 15:51:00,27.6,10.9,30.64,SW,215,10.0,13.0,49,0.00,,---,0.00,120.00,VWS V14.01,2013-11-12 21:51:00,
2013-11-12 15:56:00,27.5,11.3,30.64,SW,214,5.0,11.0,50,0.00,,---,0.00,111.00,VWS V14.01,2013-11-12 21:56:00,
2013-11-12 16:01:00,27.5,11.3,30.64,SW,224,0.0,10.0,50,0.00,,---,0.00,84.00,VWS V14.01,2013-11-12 22:01:00,
2013-11-12 16:06:00,27.4,11.2,30.64,SW,215,9.0,12.0,50,0.00,,---,0.00,86.00,VWS V14.01,2013-11-12 22:06:00,
2013-11-12 16:11:00,27.2,11.0,30.64,SW,223,10.0,14.0,50,0.00,,---,0.00,88.00,VWS V14.01,2013-11-12 22:11:00,
2013-11-12 16:16:00,27.3,11.1,30.64,SW,222,4.0,11.0,50,0.00,,---,0.00,81.00,VWS V14.01,2013-11-12 22:16:00,
2013-11-12 16:21:00,27.4,11.2,30.64,WSW,246,0.0,6.0,50,0.00,,---,0.00,49.00,VWS V14.01,2013-11-12 22:21:00,
2013-11-12 16:26:00,27.2,11.0,30.64,SW,233,9.0,10.0,50,0.00,,---,0.00,39.00,VWS V14.01,2013-11-12 22:26:00,
2013-11-12 16:31:00,26.9,11.2,30.64,WSW,253,6.0,11.0,51,0.00,,---,0.00,30.00,VWS V14.01,2013-11-12 22:31:00,
2013-11-12 16:36:00,26.7,11.4,30.64,SW,214,4.0,13.0,52,0.00,,---,0.00,19.00,VWS V14.01,2013-11-12 22:36:00,
2013-11-12 16:41:00,26.6,11.4,30.64,WSW,237,7.0,11.0,52,0.00,,---,0.00,14.00,VWS V14.01,2013-11-12 22:41:00,
2013-11-12 16:46:00,26.5,11.3,30.64,SW,234,1.0,10.0,52,0.00,,---,0.00,9.00,VWS V14.01,2013-11-12 22:46:00,
2013-11-12 16:51:00,26.3,11.1,30.64,SW,233,7.0,10.0,52,0.00,,---,0.00,7.00,VWS V14.01,2013-11-12 22:51:00,
2013-11-12 16:56:00,26.2,11.0,30.64,SW,221,6.0,11.0,52,0.00,,---,0.00,5.00,VWS V14.01,2013-11-12 22:56:00,
2013-11-12 17:01:00,26.1,10.9,30.63,SW,218,5.0,10.0,52,0.00,,---,0.00,0.00,VWS V14.01,2013-11-12 23:01:00,
2013-11-12 17:06:00,26.1,10.9,30.63,SSW,206,3.0,10.0,52,0.00,,---,0.00,0.00,VWS V14.01,2013-11-12 23:06:00,
2013-11-12 17:11:00,25.9,11.1,30.62,SSW,213,5.0,6.0,53,0.00,,---,0.00,0.00,VWS V14.01,2013-11-12 23:11:00,
2013-11-12 17:16:00,25.9,11.1,30.62,SW,226,4.0,11.0,53,0.00,,---,0.00,0.00,VWS V14.01,2013-11-12 23:16:00,
2013-11-12 17:21:00,25.8,11.0,30.61,SSW,211,1.0,10.0,53,0.00,,---,0.00,0.00,VWS V14.01,2013-11-12 23:21:00,
2013-11-12 17:26:00,25.6,11.3,30.61,SSW,204,3.0,4.0,54,0.00,,---,0.00,0.00,VWS V14.01,2013-11-12 23:26:00,
2013-11-12 17:31:00,25.4,11.1,30.61,SSW,211,3.0,4.0,54,0.00,,---,0.00,0.00,VWS V14.01,2013-11-12 23:31:00,
2013-11-12 17:36:00,25.4,11.5,30.60,SSW,197,4.0,5.0,55,0.00,,---,0.00,0.00,VWS V14.01,2013-11-12 23:36:00,
2013-11-12 17:41:00,25.2,11.7,30.60,SSW,196,3.0,5.0,56,0.00,,---,0.00,0.00,VWS V14.01,2013-11-12 23:41:00,
2013-11-12 17:46:00,25.3,11.8,30.61,SW,215,6.0,7.0,56,0.00,,---,0.00,0.00,VWS V14.01,2013-11-12 23:46:00,
2013-11-12 17:51:00,25.2,11.7,30.60,SW,235,5.0,9.0,56,0.00,,---,0.00,0.00,VWS V14.01,2013-11-12 23:51:00,
2013-11-12 17:56:00,25.2,11.7,30.60,SSW,211,9.0,9.0,56,0.00,,---,0.00,0.00,VWS V14.01,2013-11-12 23:56:00,
2013-11-12 18:01:00,25.2,11.7,30.60,SW,215,3.0,9.0,56,0.00,,---,0.00,0.00,VWS V14.01,2013-11-13 00:01:00,
2013-11-12 18:06:00,25.1,11.6,30.60,SW,214,2.0,5.0,56,0.00,,---,0.00,0.00,VWS V14.01,2013-11-13 00:06:00,
2013-11-12 18:11:00,25.0,11.5,30.60,South,182,0.0,5.0,56,0.00,,---,0.00,0.00,VWS V14.01,2013-11-13 00:11:00,
2013-11-12 18:21:00,24.7,11.6,30.61,South,183,0.0,2.0,57,0.00,,---,0.00,0.00,VWS V14.01,2013-11-13 00:21:00,
2013-11-12 18:26:00,24.5,11.9,30.60,South,183,4.0,4.0,58,0.00,,---,0.00,0.00,VWS V14.01,2013-11-13 00:26:00,
2013-11-12 18:31:00,24.3,11.7,30.61,South,183,0.0,4.0,58,0.00,,---,0.00,0.00,VWS V14.01,2013-11-13 00:31:00,
2013-11-12 18:36:00,24.1,11.5,30.60,South,183,1.0,1.0,58,0.00,,---,0.00,0.00,VWS V14.01,2013-11-13 00:36:00,
2013-11-12 18:41:00,24.0,11.8,30.60,South,184,3.0,5.0,59,0.00,,---,0.00,0.00,VWS V14.01,2013-11-13 00:41:00,
2013-11-12 18:46:00,23.9,11.7,30.59,SSW,210,2.0,6.0,59,0.00,,---,0.00,0.00,VWS V14.01,2013-11-13 00:46:00,
2013-11-12 18:56:00,24.0,11.8,30.59,SSW,205,4.0,7.0,59,0.00,,---,0.00,0.00,VWS V14.01,2013-11-13 00:56:00,
2013-11-12 19:01:00,24.0,11.8,30.59,SSW,209,1.0,8.0,59,0.00,,---,0.00,0.00,VWS V14.01,2013-11-13 01:01:00,
2013-11-12 19:06:00,24.0,11.8,30.58,SSW,198,5.0,7.0,59,0.00,,---,0.00,0.00,VWS V14.01,2013-11-13 01:06:00,
2013-11-12 19:11:00,24.0,11.8,30.57,SSW,212,5.0,7.0,59,0.00,,---,0.00,0.00,VWS V14.01,2013-11-13 01:11:00,
2013-11-12 19:16:00,23.9,11.7,30.57,SSE,163,3.0,9.0,59,0.00,,---,0.00,0.00,VWS V14.01,2013-11-13 01:16:00,
2013-11-12 19:21:00,23.9,11.7,30.57,SSW,196,3.0,7.0,59,0.00,,---,0.00,0.00,VWS V14.01,2013-11-13 01:21:00,
2013-11-12 19:26:00,23.7,11.9,30.57,SSW,192,4.0,6.0,60,0.00,,---,0.00,0.00,VWS V14.01,2013-11-13 01:26:00,
2013-11-12 19:31:00,23.6,11.8,30.57,SW,217,4.0,7.0,60,0.00,,---,0.00,0.00,VWS V14.01,2013-11-13 01:31:00,
2013-11-12 19:36:00,23.5,12.0,30.56,SSW,207,4.0,10.0,61,0.00,,---,0.00,0.00,VWS V14.01,2013-11-13 01:36:00,
2013-11-12 19:41:00,23.4,12.3,30.56,South,182,5.0,8.0,62,0.00,,---,0.00,0.00,VWS V14.01,2013-11-13 01:41:00,
2013-11-12 19:46:00,23.3,12.2,30.56,SSW,213,5.0,10.0,62,0.00,,---,0.00,0.00,VWS V14.01,2013-11-13 01:46:00,
2013-11-12 19:51:00,23.2,12.5,30.56,SSW,198,4.0,8.0,63,0.00,,---,0.00,0.00,VWS V14.01,2013-11-13 01:51:00,
2013-11-12 19:56:00,23.0,12.3,30.55,South,188,1.0,7.0,63,0.00,,---,0.00,0.00,VWS V14.01,2013-11-13 01:56:00,
2013-11-12 20:01:00,23.0,14.4,30.55,SSW,194,3.0,10.0,69,0.00,,---,0.00,0.00,VWS V14.01,2013-11-13 02:01:00,
2013-11-12 20:06:00,23.0,12.6,30.55,SSW,195,5.0,10.0,64,0.00,,---,0.00,0.00,VWS V14.01,2013-11-13 02:06:00,
2013-11-12 20:16:00,22.8,12.8,30.54,SSW,200,5.0,7.0,65,0.00,,---,0.00,0.00,VWS V14.01,2013-11-13 02:16:00,
2013-11-12 20:21:00,22.7,13.1,30.54,SSW,205,7.0,9.0,66,0.00,,---,0.00,0.00,VWS V14.01,2013-11-13 02:21:00,
2013-11-12 20:26:00,22.7,13.1,30.53,SW,219,7.0,9.0,66,0.00,,---,0.00,0.00,VWS V14.01,2013-11-13 02:26:00,
2013-11-12 20:31:00,22.7,13.1,30.53,SSW,202,9.0,12.0,66,0.00,,---,0.00,0.00,VWS V14.01,2013-11-13 02:31:00,
2013-11-12 20:36:00,22.7,13.1,30.53,South,183,7.0,11.0,66,0.00,,---,0.00,0.00,VWS V14.01,2013-11-13 02:36:00,
2013-11-12 20:41:00,22.7,13.1,30.53,SW,226,1.0,7.0,66,0.00,,---,0.00,0.00,VWS V14.01,2013-11-13 02:41:00,
2013-11-12 20:46:00,22.6,13.0,30.53,SW,215,0.0,6.0,66,0.00,,---,0.00,0.00,VWS V14.01,2013-11-13 02:46:00,
2013-11-12 20:51:00,22.5,13.2,30.53,SSW,210,4.0,6.0,67,0.00,,---,0.00,0.00,VWS V14.01,2013-11-13 02:51:00,
2013-11-12 20:56:00,22.4,13.1,30.53,SSW,198,4.0,5.0,67,0.00,,---,0.00,0.00,VWS V14.01,2013-11-13 02:56:00,
2013-11-12 21:01:00,22.4,13.1,30.52,South,173,1.0,4.0,67,0.00,,---,0.00,0.00,VWS V14.01,2013-11-13 03:01:00,
2013-11-12 21:06:00,22.2,13.3,30.52,South,186,2.0,5.0,68,0.00,,---,0.00,0.00,VWS V14.01,2013-11-13 03:06:00,
2013-11-12 21:11:00,22.1,13.2,30.52,South,187,1.0,3.0,68,0.00,,---,0.00,0.00,VWS V14.01,2013-11-13 03:11:00,
2013-11-12 21:16:00,22.0,13.1,30.52,South,186,2.0,4.0,68,0.00,,---,0.00,0.00,VWS V14.01,2013-11-13 03:16:00,
2013-11-12 21:21:00,21.9,13.0,30.52,South,186,1.0,3.0,68,0.00,,---,0.00,0.00,VWS V14.01,2013-11-13 03:21:00,
2013-11-12 21:26:00,21.8,12.9,30.52,South,186,2.0,4.0,68,0.00,,---,0.00,0.00,VWS V14.01,2013-11-13 03:26:00,
2013-11-12 21:31:00,21.7,13.1,30.51,South,187,0.0,3.0,69,0.00,,---,0.00,0.00,VWS V14.01,2013-11-13 03:31:00,
2013-11-12 21:36:00,21.6,13.0,30.51,South,178,0.0,2.0,69,0.00,,---,0.00,0.00,VWS V14.01,2013-11-13 03:36:00,
2013-11-12 21:41:00,21.6,13.0,30.51,South,178,0.0,2.0,69,0.00,,---,0.00,0.00,VWS V14.01,2013-11-13 03:41:00,
2013-11-12 21:46:00,21.4,12.8,30.51,South,178,0.0,1.0,69,0.00,,---,0.00,0.00,VWS V14.01,2013-11-13 03:46:00,
2013-11-12 21:51:00,21.3,12.7,30.51,South,178,0.0,1.0,69,0.00,,---,0.00,0.00,VWS V14.01,2013-11-13 03:51:00,
2013-11-12 21:56:00,21.3,13.1,30.51,South,178,1.0,3.0,70,0.00,,---,0.00,0.00,VWS V14.01,2013-11-13 03:56:00,
2013-11-12 22:01:00,21.2,13.0,30.51,South,178,0.0,2.0,70,0.00,,---,0.00,0.00,VWS V14.01,2013-11-13 04:01:00,
2013-11-12 22:06:00,21.2,13.0,30.51,South,178,0.0,2.0,70,0.00,,---,0.00,0.00,VWS V14.01,2013-11-13 04:06:00,
2013-11-12 22:11:00,21.1,13.2,30.50,South,178,0.0,3.0,71,0.00,,---,0.00,0.00,VWS V14.01,2013-11-13 04:11:00,
2013-11-12 22:16:00,21.1,13.2,30.50,South,178,0.0,2.0,71,0.00,,---,0.00,0.00,VWS V14.01,2013-11-13 04:16:00,
2013-11-12 22:21:00,21.0,13.1,30.50,South,178,0.0,2.0,71,0.00,,---,0.00,0.00,VWS V14.01,2013-11-13 04:21:00,
2013-11-12 22:26:00,21.0,13.4,30.49,South,179,0.0,4.0,72,0.00,,---,0.00,0.00,VWS V14.01,2013-11-13 04:26:00,
2013-11-12 22:31:00,21.0,13.4,30.49,South,180,0.0,2.0,72,0.00,,---,0.00,0.00,VWS V14.01,2013-11-13 04:31:00,
2013-11-12 22:36:00,20.9,13.3,30.49,South,178,0.0,3.0,72,0.00,,---,0.00,0.00,VWS V14.01,2013-11-13 04:36:00,
2013-11-12 22:41:00,21.0,13.4,30.48,South,169,2.0,4.0,72,0.00,,---,0.00,0.00,VWS V14.01,2013-11-13 04:41:00,
2013-11-12 22:46:00,21.1,13.5,30.48,South,171,2.0,4.0,72,0.00,,---,0.00,0.00,VWS V14.01,2013-11-13 04:46:00,
2013-11-12 22:51:00,21.2,13.6,30.48,South,183,1.0,5.0,72,0.00,,---,0.00,0.00,VWS V14.01,2013-11-13 04:51:00,
2013-11-12 22:56:00,21.3,13.7,30.47,South,170,2.0,4.0,72,0.00,,---,0.00,0.00,VWS V14.01,2013-11-13 04:56:00,
2013-11-12 23:01:00,21.3,13.7,30.47,South,169,1.0,4.0,72,0.00,,---,0.00,0.00,VWS V14.01,2013-11-13 05:01:00,
2013-11-12 23:06:00,21.3,13.7,30.47,South,182,3.0,5.0,72,0.00,,---,0.00,0.00,VWS V14.01,2013-11-13 05:06:00,
2013-11-12 23:11:00,21.3,13.7,30.46,SSE,159,4.0,4.0,72,0.00,,---,0.00,0.00,VWS V14.01,2013-11-13 05:11:00,
2013-11-12 23:16:00,21.4,13.8,30.46,SSE,152,0.0,5.0,72,0.00,,---,0.00,0.00,VWS V14.01,2013-11-13 05:16:00,
2013-11-12 23:21:00,21.4,14.1,30.46,SSE,153,2.0,4.0,73,0.00,,---,0.00,0.00,VWS V14.01,2013-11-13 05:21:00,
2013-11-12 23:26:00,21.3,14.0,30.46,SSE,157,3.0,4.0,73,0.00,,---,0.00,0.00,VWS V14.01,2013-11-13 05:26:00,
2013-11-12 23:31:00,21.3,14.0,30.45,SSE,165,2.0,6.0,73,0.00,,---,0.00,0.00,VWS V14.01,2013-11-13 05:31:00,
2013-11-12 23:36:00,21.4,14.1,30.45,South,184,1.0,8.0,73,0.00,,---,0.00,0.00,VWS V14.01,2013-11-13 05:36:00,
2013-11-12 23:41:00,21.5,14.2,30.44,SSW,207,6.0,6.0,73,0.00,,---,0.00,0.00,VWS V14.01,2013-11-13 05:41:00,
2013-11-12 23:46:00,21.6,14.3,30.44,SSW,192,5.0,9.0,73,0.00,,---,0.00,0.00,VWS V14.01,2013-11-13 05:46:00,
2013-11-12 23:51:00,21.7,14.1,30.44,South,178,4.0,9.0,72,0.00,,---,0.00,0.00,VWS V14.01,2013-11-13 05:51:00,
2013-11-12 23:56:00,21.7,14.1,30.44,South,169,2.0,4.0,72,0.00,,---,0.00,0.00,VWS V14.01,2013-11-13 05:56:00,